Flag for U.S.A. Weather past 2 weeks in Santa Clarita, California, U.S.A.

Now
82 °F

Sunny.


Feels Like: 82 °F
Forecast: 58 / 80 °F
Wind: 10 mph from Southeast

Location: Van Nuys Airport

Current Time: Sep 2, 2015 at 5:38:56 PM

Latest Report: Sep 2, 2015 at 3:51 PM


Visibility: 10 mi

Pressure: 29.86 "Hg

Humidity: 41%

Dew point: 56 °F

Location of Santa ClaritaLocation

Historic Weather in Santa Clarita — Graph

°F

Santa Clarita temperature yesterday

Maximum temperature yesterday: 84 °F (at 1:51 PM)
Minimum temperature yesterday: 66 °F (at 11:51 PM)
Average temperature yesterday: 73 °F

Past Weeks' High & Low Weather Summary

 TemperatureHumidityPressure
High103 °F (Aug 28, 2:51 PM)91% (Aug 22, 2:58 AM)29.97 "Hg (Aug 22, 2:58 AM)
Low65 °F (Aug 19, 6:00 AM)14% (Aug 28, 4:51 PM)29.77 "Hg (Aug 28, 4:51 PM)
Average78 °F57%29.87 "Hg
* Reported Aug 18 3:51 PM — Sep 2 3:51 PM, Santa Clarita, Weather by CustomWeather, © 2015

Note: Actual official high and low records may vary slightly from our data, if they occured in-between our weather recording intervals... More about our weather records

Advertising

Santa Clarita weather history for previous 24 hours

 ConditionsComfort  
Time TempWeatherWind HumidityBarometerVisibility
3:51 PM
Wed, Sep 2
82 °FSunny.10 mph41%29.86 "Hg10 mi
2:51 PM83 °FSunny.8 mph40%29.88 "Hg10 mi
1:51 PM82 °FSunny.6 mph41%29.90 "Hg10 mi
11:51 AM79 °FSunny.6 mph47%29.93 "Hg10 mi
6:51 AM67 °FOvercast.6 mph76%29.95 "Hg10 mi
5:51 AM68 °FOvercast.7 mph76%29.94 "Hg10 mi
4:51 AM68 °FOvercast.3 mph76%29.92 "Hg10 mi
3:51 AM68 °FOvercast.No wind76%29.92 "Hg10 mi
2:51 AM67 °FPassing clouds.3 mph79%29.93 "Hg10 mi
1:51 AM67 °FPassing clouds.5 mph79%29.93 "Hg10 mi
12:51 AM68 °FOvercast.5 mph78%29.95 "Hg10 mi
11:51 PM
Tue, Sep 1
66 °FOvercast.6 mph84%29.94 "Hg10 mi
10:51 PM68 °FClear.5 mph82%29.93 "Hg10 mi
9:51 PM68 °FClear.6 mph82%29.93 "Hg10 mi
8:51 PM69 °FClear.6 mph76%29.92 "Hg10 mi
7:51 PM71 °FSunny.7 mph68%29.88 "Hg10 mi
6:51 PM74 °FSunny.7 mph62%29.86 "Hg10 mi
5:51 PM76 °FSunny.12 mph56%29.85 "Hg10 mi
Weather by CustomWeather, © 2015

See weather overviewHow to use our weather pages